Miscellaneous Local Product
Issued by NWS North Platte, NE

Home | Current Version | Previous Version | Text Only | Print | Product List | Glossary On
Versions: 1 2 3 4 5 6 7 8 9 10 11 12 13 14 15 16 17 18 19 20 21 22 23 24 25 26 27 28 29 30 31 32 33 34 35 36 37 38 39 40 41 42 43 44 45 46 47 48 49 50
000
AXUS43 KLBF 271410
MISLBF


WESTERN AND NORTH CENTRAL NEBRASKA HOURLY WEATHER ROUNDUP
NATIONAL WEATHER SERVICE NORTH PLATTE NE
900 AM CDT WED AUG 27 2014

***STATIONS NOT REPORTING VARIABLES SUCH AS SKY/WEATHER OR
PRESSURE ARE PROVIDED BY THE NEBRASKA DEPARTMENT OF
ROADS...RAWS...AND APRS NETWORKS...AND ARE NOT UNDER
NATIONAL WEATHER SERVICE QUALITY CONTROL***

...OBSERVATIONS IN AND NEAR THE EASTERN PANHANDLE OF NEBRASKA...

CITY           SKY/WX    TMP DP  RH WIND       PRES   REMARKS
PINE RIDGE     MOSUNNY   62  62 100 MISG      30.12S FOG
CHADRON        MOSUNNY   65  58  78 N8        30.13S
ALLIANCE       LGT RAIN  63  62  97 E3        30.14R
SIDNEY         MOSUNNY   63  59  87 SE7       30.15R
WHITECLAY        N/A     63  60  91 CALM        N/A
RUSHVILLE        N/A     63  61  93 NE6         N/A
GORDON           N/A     68  68  99 E7          N/A
CRESCENT LAKE    N/A     67  65  95 SE6         N/A
LISCO            N/A     70  62  75 E9          N/A
BIG SPRINGS      N/A     63  61  93 CALM        N/A
$$

...OBSERVATIONS IN NORTH CENTRAL NEBRASKA...

CITY           SKY/WX    TMP DP  RH WIND       PRES   REMARKS
VALENTINE      CLOUDY    70  67  90 CALM      30.12S
THEDFORD       CLOUDY    69  68  97 SE9       30.14S
AINSWORTH      PTSUNNY   65  64  97 CALM      30.12F
O`NEILL        CLOUDY    68  67  96 SE7       30.14S
ORD            CLOUDY    69  67  93 NE5       30.09F
BROKEN BOW     CLOUDY    71  68  90 E3        30.13R FOG
BROWNLEE         N/A     69  67  93 E8          N/A
SPRINGVIEW       N/A     67  65  92 E8G15       N/A
ROSE             N/A     70  70  99 NE10        N/A
NEWPORT          N/A     67  67  99 SE10        N/A
SARGENT          N/A     67  66  98 CALM        N/A
COMSTOCK         N/A     73  73  99 CALM        N/A
CHAMBERS         N/A     66  65  97 E3G12       N/A
EWING            N/A     67  66  97 CALM        N/A
$$

...OBSERVATIONS IN SOUTHWEST NEBRASKA AND FAR NORTHEAST COLORADO...

CITY           SKY/WX    TMP DP  RH WIND       PRES   REMARKS
WRAY             N/A     66  63  89 S12G17    30.14S
HOLYOKE        FAIR      64  61  88 S5        30.14S
IMPERIAL       MOSUNNY   67  63  87 S8        30.13R
OGALLALA       PTSUNNY   64  61  90 CALM      30.13S
NORTH PLATTE   CLOUDY    67  64  90 E3        30.14R
MCCOOK         CLOUDY    68  66  93 S8        30.13S
LEXINGTON      CLOUDY    69  67  93 CALM      30.13R
PAXTON           N/A     65  63  93 CALM        N/A
SUTHERLAND       N/A     69  66  89 E3          N/A
BRADY            N/A     66  64  93 CALM        N/A
GOTHENBURG       N/A     67  63  86 CALM        N/A
CALLAWAY         N/A     67  66  98 E6          N/A
$$

...SOME WEATHER OBSERVATIONS FROM AROUND THE REGION...

CITY           SKY/WX    TMP DP  RH WIND       PRES   REMARKS
DENVER         CLOUDY    62  55  77 SW8       30.17R
LARAMIE        LGT RAIN  52  49  89 SW9       30.28R
CHEYENNE       LGT RAIN  57  53  86 NW7       30.21F FOG
SCOTTSBLUFF    CLOUDY    65  63  93 NE8       30.14R
RAPID CITY     MOSUNNY   57  54  89 E5        30.16S
PIERRE         CLOUDY    60  60 100 E9        30.11S FOG
WINNER         FOG       67  65  93 SE9       30.11S VSB 1/2
SIOUX FALLS    CLOUDY    62  56  80 E7        30.18S
OMAHA          CLOUDY    69  65  86 E7        30.10F THUNDER
GRAND ISLAND   CLOUDY    69  67  93 SE7       30.11R
KANSAS CITY    PTSUNNY   71  68  90 NE13      30.13F
WICHITA        PTSUNNY   80  65  59 NW9       30.12S
HAYS           CLOUDY    72  64  78 S8        30.13S
LIBERAL        CLOUDY    70  64  83 SE12      30.15S
GOODLAND       CLOUDY    65  64  97 S13       30.15S
$$



USA.gov is the U.S. government's official web portal to all federal, state and local government web resources and services.